| time (UTC) | temp F | wind direction | speed MPH | gust MPH | rain 1hr in | rain 24hr in | rain mn in | humidity % | barometer mb |
| 20260509191531 | 73 | 211 | 2.0 | 5.0 | 0.00 | 0.06 | 0.06 | 84 | 1011.1 |
| 20260509190526 | 73 | 198 | 2.0 | 4.0 | 0.00 | 0.06 | 0.06 | 84 | 1010.9 |
| 20260509185521 | 73 | 193 | 2.0 | 4.0 | 0.00 | 0.06 | 0.06 | 84 | 1011.2 |
| 20260509184516 | 72 | 207 | 2.0 | 4.0 | 0.00 | 0.06 | 0.06 | 84 | 1010.9 |
| 20260509183531 | 72 | 189 | 2.0 | 4.0 | 0.00 | 0.06 | 0.06 | 85 | 1011.2 |
| 20260509182526 | 72 | 213 | 2.0 | 6.0 | 0.00 | 0.06 | 0.06 | 84 | 1011.5 |
| 20260509181521 | 72 | 205 | 2.0 | 4.0 | 0.00 | 0.06 | 0.06 | 84 | 1011.6 |
| 20260509180517 | 72 | 213 | 2.0 | 6.0 | 0.00 | 0.06 | 0.06 | 82 | 1011.6 |
| 20260509175532 | 73 | 201 | 2.0 | 4.0 | 0.00 | 0.06 | 0.06 | 81 | 1011.7 |
| 20260509174527 | 72 | 171 | 2.0 | 4.0 | 0.00 | 0.06 | 0.06 | 82 | 1011.8 |
| 20260509173522 | 72 | 213 | 2.0 | 4.0 | 0.00 | 0.06 | 0.06 | 81 | 1011.8 |
| 20260509172517 | 73 | 222 | 2.0 | 5.0 | 0.00 | 0.06 | 0.06 | 78 | 1012.0 |
| 20260509171532 | 73 | 188 | 2.0 | 3.0 | 0.00 | 0.06 | 0.06 | 79 | 1011.9 |
| 20260509170527 | 73 | 204 | 1.0 | 3.0 | 0.00 | 0.06 | 0.06 | 79 | 1012.1 |
| 20260509165522 | 73 | 121 | 1.0 | 2.0 | 0.00 | 0.06 | 0.06 | 80 | 1012.4 |
| 20260509164517 | 73 | 195 | 2.0 | 5.0 | 0.00 | 0.06 | 0.06 | 79 | 1012.5 |
| 20260509163533 | 74 | 212 | 4.0 | 9.0 | 0.00 | 0.06 | 0.06 | 77 | 1012.7 |
| 20260509162528 | 74 | 177 | 6.0 | 9.0 | 0.00 | 0.06 | 0.06 | 78 | 1012.7 |
| 20260509161523 | 73 | 182 | 7.0 | 9.0 | 0.00 | 0.06 | 0.06 | 78 | 1012.9 |
| 20260509160518 | 73 | 172 | 3.0 | 9.0 | 0.00 | 0.06 | 0.06 | 78 | 1012.9 |
| 20260509155533 | 72 | 210 | 3.0 | 6.0 | 0.00 | 0.06 | 0.06 | 80 | 1012.9 |
| 20260509154528 | 72 | 184 | 2.0 | 3.0 | 0.00 | 0.06 | 0.06 | 82 | 1013.0 |
| 20260509153523 | 71 | 113 | 0.0 | 2.0 | 0.00 | 0.06 | 0.06 | 85 | 1013.0 |
| 20260509152517 | 70 | 230 | 1.0 | 2.0 | 0.02 | 0.06 | 0.06 | 87 | 1013.4 |
| 20260509151533 | 69 | 16 | 0.0 | 2.0 | 0.04 | 0.06 | 0.06 | 89 | 1013.4 |
| 20260509150528 | 69 | 198 | 1.0 | 3.0 | 0.04 | 0.06 | 0.06 | 91 | 1013.4 |
| 20260509145523 | 68 | 228 | 0.0 | 2.0 | 0.06 | 0.06 | 0.06 | 94 | 1013.5 |
| 20260509144518 | 67 | 123 | 1.0 | 2.0 | 0.06 | 0.06 | 0.06 | 95 | 1013.4 |
| 20260509143533 | 67 | 332 | 1.0 | 2.0 | 0.06 | 0.06 | 0.06 | 93 | 1013.3 |
| 20260509142528 | 67 | 44 | 1.0 | 2.0 | 0.04 | 0.04 | 0.04 | 92 | 1013.5 |
| 20260509141523 | 67 | 0.0 | 1.0 | 0.03 | 0.03 | 0.03 | 91 | 1013.4 | |
| 20260509140518 | 68 | 89 | 0.0 | 2.0 | 0.02 | 0.02 | 0.02 | 87 | 1013.6 |
| 20260509135534 | 69 | 0.0 | 1.0 | 0.00 | 0.00 | 0.00 | 84 | 1013.6 | |
| 20260509134528 | 69 | 140 | 0.0 | 1.0 | 0.00 | 0.00 | 0.00 | 86 | 1013.6 |
| 20260509133524 | 69 | 0.0 | 1.0 | 0.00 | 0.00 | 0.00 | 86 | 1013.4 | |
| 20260509132519 | 69 | 0.0 | 1.0 | 0.00 | 0.00 | 0.00 | 86 | 1013.5 | |
| 20260509131534 | 68 | 125 | 0.0 | 2.0 | 0.00 | 0.00 | 0.00 | 84 | 1013.6 |
| 20260509130529 | 68 | 202 | 0.0 | 1.0 | 0.00 | 0.00 | 0.00 | 84 | 1013.6 |
| 20260509125524 | 68 | 155 | 1.0 | 4.0 | 0.00 | 0.00 | 0.00 | 84 | 1013.4 |
| 20260509124519 | 67 | 64 | 3.0 | 6.0 | 0.00 | 0.00 | 0.00 | 87 | 1013.4 |
| 20260509123534 | 66 | 84 | 3.0 | 5.0 | 0.00 | 0.00 | 0.00 | 89 | 1013.2 |
| 20260509122529 | 65 | 122 | 2.0 | 4.0 | 0.00 | 0.00 | 0.00 | 89 | 1013.5 |
| 20260509121525 | 64 | 80 | 2.0 | 4.0 | 0.00 | 0.00 | 0.00 | 91 | 1013.4 |
| 20260509120520 | 63 | 99 | 2.0 | 3.0 | 0.00 | 0.00 | 0.00 | 92 | 1013.4 |
| 20260509115535 | 63 | 68 | 2.0 | 4.0 | 0.00 | 0.00 | 0.00 | 94 | 1013.5 |
| 20260509114530 | 62 | 101 | 1.0 | 3.0 | 0.00 | 0.00 | 0.00 | 96 | 1013.5 |
| 20260509113525 | 62 | 319 | 1.0 | 2.0 | 0.00 | 0.00 | 0.00 | 96 | 1013.4 |
| 20260509112519 | 61 | 61 | 1.0 | 3.0 | 0.00 | 0.00 | 0.00 | 97 | 1013.1 |
| 20260509111534 | 61 | 82 | 1.0 | 3.0 | 0.00 | 0.00 | 0.00 | 97 | 1013.1 |
| 20260509110530 | 61 | 100 | 1.0 | 3.0 | 0.00 | 0.00 | 0.00 | 97 | 1013.1 |
| 20260509105525 | 60 | 85 | 2.0 | 3.0 | 0.00 | 0.00 | 0.00 | 96 | 1013.3 |
| 20260509104520 | 60 | 124 | 1.0 | 4.0 | 0.00 | 0.00 | 0.00 | 96 | 1013.4 |
| 20260509103535 | 60 | 52 | 2.0 | 4.0 | 0.00 | 0.00 | 0.00 | 96 | 1013.2 |
| 20260509102530 | 60 | 120 | 1.0 | 3.0 | 0.00 | 0.00 | 0.00 | 96 | 1013.3 |
| 20260509101525 | 60 | 116 | 1.0 | 3.0 | 0.00 | 0.00 | 0.00 | 96 | 1013.0 |
| 20260509100520 | 60 | 99 | 1.0 | 3.0 | 0.00 | 0.00 | 0.00 | 96 | 1012.9 |
| 20260509095536 | 60 | 74 | 1.0 | 3.0 | 0.00 | 0.00 | 0.00 | 96 | 1012.8 |
| 20260509094530 | 60 | 240 | 1.0 | 3.0 | 0.00 | 0.00 | 0.00 | 96 | 1012.7 |
| 20260509093526 | 60 | 68 | 2.0 | 3.0 | 0.00 | 0.00 | 0.00 | 96 | 1012.6 |
| 20260509092521 | 60 | 95 | 2.0 | 4.0 | 0.00 | 0.00 | 0.00 | 96 | 1012.9 |
| 20260509091516 | 60 | 128 | 2.0 | 3.0 | 0.00 | 0.00 | 0.00 | 96 | 1013.2 |
| 20260509090531 | 60 | 149 | 1.0 | 3.0 | 0.00 | 0.00 | 0.00 | 96 | 1013.1 |
| 20260509085527 | 60 | 175 | 2.0 | 4.0 | 0.00 | 0.00 | 0.00 | 96 | 1012.8 |
| 20260509084522 | 60 | 75 | 2.0 | 5.0 | 0.00 | 0.00 | 0.00 | 96 | 1012.9 |
| 20260509083517 | 60 | 95 | 3.0 | 6.0 | 0.00 | 0.00 | 0.00 | 96 | 1012.8 |
| 20260509082532 | 60 | 81 | 2.0 | 4.0 | 0.00 | 0.00 | 0.00 | 96 | 1013.4 |
| 20260509081527 | 59 | 119 | 2.0 | 2.0 | 0.00 | 0.00 | 0.00 | 96 | 1013.5 |
| 20260509080522 | 59 | 84 | 0.0 | 1.0 | 0.00 | 0.00 | 0.00 | 96 | 1013.8 |
| 20260509075517 | 59 | 107 | 1.0 | 2.0 | 0.00 | 0.00 | 0.00 | 96 | 1013.8 |
| 20260509074532 | 59 | 75 | 1.0 | 2.0 | 0.00 | 0.00 | 0.00 | 96 | 1013.5 |
| 20260509073527 | 59 | 91 | 1.0 | 2.0 | 0.00 | 0.00 | 0.00 | 96 | 1013.7 |
| 20260509072521 | 59 | 109 | 1.0 | 2.0 | 0.00 | 0.00 | 0.00 | 96 | 1013.8 |
| 20260509071516 | 59 | 112 | 0.0 | 1.0 | 0.00 | 0.00 | 0.00 | 95 | 1013.8 |
| 20260509070531 | 59 | 73 | 1.0 | 2.0 | 0.00 | 0.00 | 0.00 | 96 | 1013.6 |
| 20260509065527 | 59 | 84 | 1.0 | 2.0 | 0.00 | 0.00 | 0.00 | 95 | 1014.0 |
| 20260509064522 | 59 | 102 | 0.0 | 1.0 | 0.00 | 0.00 | 0.00 | 95 | 1014.0 |
| 20260509063517 | 59 | 120 | 1.0 | 2.0 | 0.00 | 0.00 | 0.00 | 95 | 1014.6 |
| 20260509062532 | 59 | 74 | 1.0 | 2.0 | 0.00 | 0.00 | 0.00 | 95 | 1014.4 |
| 20260509061527 | 60 | 109 | 0.0 | 2.0 | 0.00 | 0.00 | 0.00 | 94 | 1014.8 |
| 20260509060522 | 59 | 92 | 1.0 | 2.0 | 0.00 | 0.00 | 0.00 | 94 | 1014.8 |
| 20260509055517 | 59 | 98 | 0.0 | 2.0 | 0.00 | 0.00 | 0.00 | 94 | 1015.0 |
| 20260509054532 | 59 | 86 | 1.0 | 2.0 | 0.00 | 0.00 | 0.00 | 94 | 1015.2 |
| 20260509053527 | 59 | 0.0 | 0.0 | 0.00 | 0.00 | 0.00 | 94 | 1015.4 | |
| 20260509052523 | 59 | 94 | 0.0 | 2.0 | 0.00 | 0.00 | 0.00 | 93 | 1015.4 |
| 20260509051518 | 60 | 82 | 0.0 | 1.0 | 0.00 | 0.00 | 0.00 | 93 | 1015.6 |
| 20260509050533 | 60 | 109 | 0.0 | 1.0 | 0.00 | 0.00 | 0.00 | 93 | 1015.7 |
| 20260509045528 | 60 | 89 | 0.0 | 1.0 | 0.00 | 0.00 | 0.00 | 93 | 1015.6 |
| 20260509044523 | 60 | 113 | 0.0 | 1.0 | 0.00 | 0.00 | 0.00 | 93 | 1015.7 |
| 20260509043519 | 60 | 86 | 1.0 | 2.0 | 0.00 | 0.00 | 0.00 | 93 | 1015.5 |
| 20260509042534 | 60 | 102 | 1.0 | 2.0 | 0.00 | 0.00 | 0.00 | 92 | 1015.5 |
| 20260509041529 | 60 | 87 | 0.0 | 1.0 | 0.00 | 0.00 | 0.00 | 92 | 1015.4 |
| 20260509040524 | 60 | 95 | 1.0 | 2.0 | 0.00 | 0.00 | 0.00 | 92 | 1015.5 |
| 20260509035519 | 60 | 91 | 1.0 | 2.0 | 0.00 | 0.00 | 0.00 | 91 | 1015.6 |
| 20260509034534 | 60 | 40 | 0.0 | 2.0 | 0.00 | 0.00 | 0.00 | 91 | 1015.6 |
| 20260509033529 | 60 | 96 | 1.0 | 2.0 | 0.00 | 0.00 | 0.00 | 91 | 1015.7 |
| 20260509032523 | 61 | 62 | 0.0 | 1.0 | 0.00 | 0.00 | 0.00 | 90 | 1015.8 |
| 20260509031519 | 61 | 96 | 0.0 | 1.0 | 0.00 | 0.00 | 0.00 | 89 | 1015.8 |
| 20260509030534 | 61 | 77 | 2.0 | 2.0 | 0.00 | 0.00 | 0.00 | 89 | 1015.9 |
| 20260509025529 | 61 | 58 | 0.0 | 2.0 | 0.00 | 0.00 | 0.00 | 88 | 1016.0 |
| 20260509024524 | 61 | 149 | 2.0 | 2.0 | 0.00 | 0.00 | 0.00 | 87 | 1015.9 |
| 20260509023519 | 62 | 46 | 0.0 | 1.0 | 0.00 | 0.00 | 0.00 | 87 | 1016.1 |
| 20260509022534 | 62 | 64 | 0.0 | 1.0 | 0.00 | 0.00 | 0.00 | 86 | 1016.0 |
| 20260509021529 | 62 | 133 | 0.0 | 2.0 | 0.00 | 0.00 | 0.00 | 86 | 1016.0 |
| 20260509020525 | 62 | 112 | 0.0 | 1.0 | 0.00 | 0.00 | 0.00 | 85 | 1016.0 |
| 20260509015520 | 62 | 0.0 | 1.0 | 0.00 | 0.00 | 0.00 | 85 | 1016.2 | |
| 20260509014535 | 62 | 0.0 | 1.0 | 0.00 | 0.00 | 0.00 | 84 | 1016.0 | |
| 20260509013530 | 62 | 26 | 0.0 | 1.0 | 0.00 | 0.00 | 0.00 | 83 | 1015.7 |
| 20260509012525 | 63 | 0.0 | 0.0 | 0.00 | 0.00 | 0.00 | 82 | 1015.7 | |
| 20260509011520 | 63 | 129 | 0.0 | 1.0 | 0.00 | 0.00 | 0.00 | 80 | 1015.6 |
| 20260509010535 | 64 | 210 | 1.0 | 5.0 | 0.00 | 0.00 | 0.00 | 78 | 1015.5 |
| 20260509005530 | 63 | 168 | 1.0 | 2.0 | 0.00 | 0.00 | 0.00 | 78 | 1015.4 |
| 20260509004525 | 63 | 134 | 0.0 | 2.0 | 0.00 | 0.00 | 0.00 | 80 | 1015.3 |
| 20260509003520 | 63 | 107 | 1.0 | 2.0 | 0.00 | 0.00 | 0.00 | 79 | 1015.1 |
| 20260509002535 | 63 | 94 | 1.0 | 2.0 | 0.00 | 0.00 | 0.00 | 78 | 1015.3 |
| 20260509001530 | 63 | 104 | 1.0 | 2.0 | 0.00 | 0.00 | 0.00 | 77 | 1015.4 |
| 20260509000525 | 64 | 103 | 1.0 | 2.0 | 0.00 | 0.00 | 0.00 | 76 | 1015.3 |
| 20260508235521 | 64 | 123 | 1.0 | 2.0 | 0.00 | 0.00 | 0.00 | 75 | 1015.3 |
| 20260508234536 | 64 | 188 | 1.0 | 3.0 | 0.00 | 0.00 | 0.00 | 76 | 1015.1 |
| 20260508233531 | 64 | 122 | 1.0 | 2.0 | 0.00 | 0.00 | 0.00 | 76 | 1015.2 |
| 20260508232525 | 64 | 122 | 1.0 | 2.0 | 0.00 | 0.00 | 0.00 | 76 | 1015.2 |
| 20260508231520 | 65 | 148 | 1.0 | 2.0 | 0.00 | 0.00 | 0.00 | 75 | 1015.2 |
| 20260508230535 | 65 | 134 | 2.0 | 4.0 | 0.00 | 0.00 | 0.00 | 75 | 1015.3 |
| 20260508225530 | 65 | 106 | 1.0 | 3.0 | 0.00 | 0.00 | 0.00 | 74 | 1015.4 |
| 20260508224525 | 65 | 115 | 2.0 | 3.0 | 0.00 | 0.00 | 0.00 | 74 | 1015.4 |
| 20260508223520 | 65 | 186 | 2.0 | 4.0 | 0.00 | 0.00 | 0.00 | 72 | 1015.3 |
| 20260508222536 | 65 | 221 | 2.0 | 7.0 | 0.00 | 0.00 | 0.00 | 72 | 1015.4 |
| 20260508221531 | 66 | 101 | 2.0 | 4.0 | 0.00 | 0.00 | 0.00 | 72 | 1015.2 |
| 20260508220525 | 66 | 120 | 2.0 | 3.0 | 0.00 | 0.00 | 0.00 | 71 | 1015.1 |
| 20260508215520 | 66 | 149 | 1.0 | 6.0 | 0.00 | 0.00 | 0.00 | 72 | 1015.0 |
| 20260508214535 | 66 | 107 | 2.0 | 4.0 | 0.00 | 0.00 | 0.00 | 71 | 1014.8 |
| 20260508213531 | 66 | 109 | 2.0 | 3.0 | 0.00 | 0.00 | 0.00 | 69 | 1015.0 |
| 20260508212526 | 66 | 188 | 2.0 | 5.0 | 0.00 | 0.00 | 0.00 | 69 | 1015.1 |
| 20260508211521 | 66 | 115 | 2.0 | 4.0 | 0.00 | 0.00 | 0.00 | 68 | 1015.2 |
| 20260508210536 | 66 | 155 | 2.0 | 5.0 | 0.00 | 0.00 | 0.00 | 67 | 1015.0 |
| 20260508205531 | 67 | 215 | 3.0 | 8.0 | 0.00 | 0.00 | 0.00 | 65 | 1015.3 |
| 20260508204527 | 68 | 192 | 7.0 | 13.0 | 0.00 | 0.00 | 0.00 | 61 | 1015.3 |
| 20260508203521 | 69 | 181 | 7.0 | 11.0 | 0.00 | 0.00 | 0.00 | 56 | 1015.1 |
| 20260508202516 | 69 | 181 | 6.0 | 8.0 | 0.00 | 0.00 | 0.00 | 53 | 1015.2 |
| 20260508201532 | 69 | 175 | 6.0 | 8.0 | 0.00 | 0.00 | 0.00 | 53 | 1015.4 |
| 20260508200527 | 69 | 185 | 7.0 | 12.0 | 0.00 | 0.00 | 0.00 | 51 | 1015.5 |
| 20260508195522 | 70 | 186 | 7.0 | 11.0 | 0.00 | 0.00 | 0.00 | 53 | 1015.5 |
| 20260508194516 | 70 | 209 | 4.0 | 13.0 | 0.00 | 0.00 | 0.00 | 55 | 1015.5 |
| 20260508193532 | 71 | 173 | 2.0 | 4.0 | 0.00 | 0.00 | 0.00 | 54 | 1015.5 |
| 20260508192527 | 70 | 213 | 2.0 | 6.0 | 0.00 | 0.00 | 0.00 | 55 | 1015.6 |